Regional Weather Roundup
Issued by NWS Newport/Morehead, NC

Current Version | Previous Version | Graphics & Text | Print | Product List | Glossary Off
Versions: 1 2 3 4 5 6 7 8 9 10 11 12 13 14 15 16 17 18 19 20 21 22 23 24 25 26 27 28 29 30 31 32 33 34 35 36 37 38 39 40 41 42 43 44 45 46 47 48 49 50

000
ASUS42 KMHX 041212
RWRMHX
WEATHER ROUNDUP FOR EASTERN NORTH CAROLINA
NATIONAL WEATHER SERVICE NEWPORT/MOREHEAD CITY NC
700 AM EST WED MAR 04 2015

NOTE: "FAIR" INDICATES FEW OR NO CLOUDS BELOW 12,000 FEET
WITH NO SIGNIFICANT WEATHER AND/OR OBSTRUCTIONS TO VISIBILITY

NCZ015>017-031-032-045>047-102-103-041300-
NORTH COAST

CITY           SKY/WX    TMP DP  RH WIND       PRES   REMARKS
EDENTON        FOG       48  48  99 SW5       30.01R VSB 1/4
ELIZABETH CITY CLOUDY    52  52 100 SW14      30.00S FOG
KITTY HAWK     CLOUDY    60  60 100 SW13      29.99R
MANTEO         CLOUDY    57  57 100 SW18G25   30.00S FOG

$$

NCZ045>047-081-094-103-104-041300-
CENTRAL COAST

CITY           SKY/WX    TMP DP  RH WIND       PRES   REMARKS
FRISCO         FOG       54  54 100 W9        30.05R VSB 1/4
SWANQUARTER      N/A     50 N/A N/A S8        29.97S

$$

NCZ095-097-098-100-101-041300-
SOUTHERN COAST

CITY           SKY/WX    TMP DP  RH WIND       PRES   REMARKS
BEAUFORT       FOG       53  53 100 W10       30.08R VSB 1/4
CEDAR ISLAND     N/A     59 N/A N/A SW14G22   30.09R
JACKSONVILLE   CLOUDY    63  62  97 SW13G22   30.06S VSB 1/8
PINEY ISLAND   NOT AVBL
WILMINGTON     CLOUDY    63  62  97 SW16G23   30.08S


$$

NCZ011>013-027>030-043-044-078>080-089-090>093-098-041300-
COASTAL PLAIN

CITY           SKY/WX    TMP DP  RH WIND       PRES   REMARKS
AHOSKIE        FOG       46  46  99 SW3       29.98F VSB 3/4
CLINTON        FOG       45  45 100 CALM      30.05S VSB 1/4
ELIZABETHTOWN  CLOUDY    58  58 100 SW12G18   30.05S
GOLDSBORO      FOG       47  47 100 SW7       30.01F VSB 3/4
GREENVILLE     FOG       50  50 100 SW12G18   30.03R VSB 1
HAVELOCK       CLOUDY    62  60  93 SW14      30.06R
KENANSVILLE    CLOUDY    52  51  98 CALM      30.05S FOG
KINSTON        FOG       50  50 100 SW9       30.04S VSB 1/4
NEW BERN       CLOUDY    64  61  90 SW13G24   30.04S
RICHLANDS      CLOUDY    61  59  94 SW15G22   30.05S
ROCKY MOUNT    FOG       47  47 100 SW10      30.00F VSB 3/4
WASHINGTON     FOG       52  51  99 SW10G16   30.01F VSB 1
WHITEVILLE     CLOUDY    57  56  97 SW8       30.07R

$$

AMZ130-135-150-152-154-156-158-170-250-252-270-ANZ085-086-088-633-658-670-041300-
MARINE OBSERVATIONS

STATION/POSITION TIME  TEMP    WIND        PRES    WAVE   SWELL
                       AIR SEA DIR/SP/G            HT/PER HT/PER
                 (UTC) (F)     (DEG/KT/KT) (MB)    (FT/S) (FT/S)
CHESAPEAKE LIGHT NOT AVBL
64 E VA BEACH    1150   54 56  230/ 14/ 17 1014.8    6/ 8   5/ 8
DUCK             1100   49 34  240/  9/ 11 1014.6
2 E DUCK         1111      35                N/A     5/ 7
10 NE DUCK       1122      37                N/A     5/ 7   2/11
OREGON INLET     1100   50 43  200/ 16/ 18 1015.8
HATTERAS CG      1100   55 44  220/ 11/ 14 1017.2
CAPE LOOKOUT     1200   60     220/ 13/ 16 1018.2
BEAUFORT LAB     1100   54 44  240/  5/  8 1017.0
27 SE WRIGHTSVLE NOT AVBL
5 SE WRIGHTSVLE  NOT AVBL
225 S CAPE HAT   1150   71 73  210/ 17/ 19 1022.8    6/10   3/10
41 SE CHARLESTON 1150   66 68  240/  8/ 10 1019.6    5/ 5   5/ 5

$$


USA.gov is the U.S. government's official web portal to all federal, state and local government web resources and services.